Tracking 31011 objects as of 11-Jul-2025
HD Live streaming from Space Station
objects crossing your sky now

KINEIS-2A

Track KINEIS-2A now!
10-day predictions


NORAD ID: 62932
Int'l Code: 2025-028E
Perigee: 658.3 km
Apogee: 663.1 km
Inclination: 98.0 °
Period: 97.8 minutes
Semi major axis: 7031 km
RCS: Unknown
Launch date: February 8, 2025
Source: France (FR)
Launch site: Rocket Lab Launch Complex (RLLC)
Your satellite tracking list
Your tracking list is empty




NASA's NSSDC Master Catalog

Two Line Element Set (TLE):
1 62932U 25028E   25192.41415457  .00000871  00000-0  14554-3 0  9997
2 62932  98.0138 245.9825 0003405 149.9709 210.1694 14.72352304 22467
Source of the keplerian elements: AFSPC